Home   Weather   Fall River   Past weeks

Flag for USA Past Weather in Fall River, Massachusetts, USA — Yesterday and Last 2 Weeks

Now
76 °F

Clear.


Feels Like: 76 °F
Forecast: 67 / 90 °F
Wind: 7 mph from Southwest

Location: New Bedford Regional Airport

Current Time: Jul 20, 2017 at 10:54:35 pm

Latest Report: Jul 20, 2017 at 9:53 pm


Visibility: 10 mi

Pressure: 29.82 "Hg

Humidity: 85%

Dew Point: 71 °F

Location of Fall RiverLocation

Past Weather in Fall River — Graph

°F

Fall River Temperature Yesterday

Maximum temperature yesterday: 88 °F (at 12:53 pm)
Minimum temperature yesterday: 72 °F (at 2:53 am)
Average temperature yesterday: 78 °F

High & Low Weather Summary for the Past Weeks

 TemperatureHumidityPressure
High90 °F (Jul 20, 12:53 pm)100% (Jul 16, 4:26 am)30.23 "Hg (Jul 16, 4:26 am)
Low51 °F (Jul 6, 3:53 am)37% (Jul 9, 2:53 pm)29.65 "Hg (Jul 7, 5:53 pm)
Average71 °F84%29.97 "Hg
* Reported Jul 5 8:53 pm — Jul 20 8:53 pm, Fall River. Weather by CustomWeather, © 2017

Note: Actual official high and low records may vary slightly from our data, if they occured in-between our weather recording intervals... More about our weather records

Advertising

Fall River Weather History for the Previous 24 Hours

Scroll right to see more
 ConditionsComfort  
Time TempWeatherWind HumidityBarometerVisibility
8:53 pm
Thu, Jul 20
78 °FClear.8 mph79%29.83 "Hg10 mi
7:53 pm78 °FScattered clouds.9 mph79%29.83 "Hg10 mi
6:53 pm81 °FPassing clouds.10 mph62%29.84 "Hg10 mi
5:53 pm84 °FSunny.12 mph49%29.85 "Hg10 mi
4:53 pm87 °FSunny.15 mph48%29.85 "Hg10 mi
3:53 pm88 °FSunny.14 mph45%29.85 "Hg10 mi
2:53 pm90 °FSunny.14 mph45%29.87 "Hg10 mi
1:53 pm90 °FSunny.9 mph48%29.88 "Hg10 mi
12:53 pm90 °FSunny.12 mph47%29.91 "Hg10 mi
11:53 am89 °FSunny.5 mph46%29.93 "Hg10 mi
10:53 am87 °FSunny.6 mph53%29.94 "Hg10 mi
9:53 am84 °FSunny.No wind57%29.94 "Hg10 mi
8:53 am83 °FSunny.3 mph61%29.95 "Hg10 mi
7:53 am78 °FSunny.5 mph74%29.96 "Hg10 mi
6:53 am70 °FSunny.No wind93%29.95 "Hg10 mi
6:26 am66 °FFog.No wind100%29.94 "Hg3 mi
6:22 am66 °FFog.No wind96%29.93 "Hg1 mi
6:06 am67 °FFog.No wind97%29.93 "Hg3 mi
5:38 am66 °FFog.No wind100%29.93 "Hg1 mi
5:20 am64 °FFog.No wind100%29.93 "Hg3 mi
4:56 am67 °FFog.No wind97%29.93 "Hg2 mi
4:41 am65 °FFog.No wind100%29.93 "Hg2 mi
4:29 am66 °FFog.No wind100%29.93 "Hg1 mi
4:04 am68 °FFog.No wind96%29.94 "Hg3 mi
3:53 am66 °FFog.3 mph100%29.93 "Hg1 mi
3:30 am69 °FFog.No wind96%29.94 "Hg2 mi
2:53 am68 °FFog.No wind96%29.94 "Hg5 mi
1:53 am70 °FClear.No wind97%29.94 "Hg8 mi
12:53 am73 °FClear.5 mph90%29.95 "Hg10 mi
11:53 pm
Wed, Jul 19
74 °FClear.6 mph91%29.95 "Hg10 mi
10:53 pm73 °FClear.5 mph90%29.96 "Hg10 mi
Weather by CustomWeather, © 2017

See weather overviewHow to use our weather pages